Volver al catálogo

CZ-4C DEB

ActivoPO
NORAD 43409·DEBRIS·🇨🇳 China

Lanzado Sep 23, 2013 desde Taiyuan Satellite Launch Center

Loading…

Próximos Pases (próximas 24 horas)

TLE

ActualizadoSource: Space-Track

Época: Sep 14, 2026, 05:28 UTC

1 43409U 13052D   26257.22803483  .00000156  00000-0  15666-3 0  9992
2 43409  98.7811 358.9542 0236015  96.6692 266.1381 13.78127320643528

Sigue CZ-4C DEB en tiempo real con AllMySat

Download on the App Store